sat.trackr.live / text

‹ back to catalog

ONEWEB-0371

NORAD 49297 · 2021-090U

PAYLOAD ACTIVE UNKNOWN

§ Identity

Operator
Country
UK
Launch date
2021-10-14
Launch site
VOSTO
Launch vehicle
Mass (kg)
RCS (m²)

Purposes: comms

External: N2YO · Heavens-Above · Gunter

§ Orbital elements

Epoch: 2026-09-09T13:46:31.034784Z

Period
109.11 min
Inclination
87.9119°
Eccentricity
0.0002164
Mean motion
13.19725777 rev/d
Perigee alt
1,184.1 km
Apogee alt
1,187.4 km
Semi-major
7,563.9 km
B*
1.1339e-4
RAAN
288.1605°
Arg perigee
96.1140°
Mean anomaly
264.0239°
Rev number
23,758

§ Raw data

ONEWEB-03711 49297U 21090U   26252.57397031  .00000058  00000+0  11339-3 0  99972 49297  87.9119 288.1605 0002164  96.1140 264.0239 13.19725777237582

JSON: /api/v1/satellites/49297 · /tle

For live sub-satellite position, see the globe view (requires WebGL).

§ Visibility from observer

Set your observer location to see the next 7 days of passes ≥ 10°. The values pass through the URL so the page stays shareable.

No JS? Fill the form by hand. The geolocation button needs JavaScript.